Location: Arcizac
(43.0933°N, 0.0112°E)
Time: 10:23:46
(UTC+00:00)

COSMO-SKYMED 1 - Pass Details

Date: 14 December 2019
Orbit: 621 x 623 km, 97.9° (Epoch: 20 January)

Event Time Altitude Azimuth Distance (km) Brightness Sun altitude
Exits shadow 17:05:06 - 41° (NE) 2,281 4.9 -7.2°
Reaches altitude 10° 17:06:03 10° 49° (NE) 1,999 4.6 -7.4°
Maximum altitude 17:09:01 18° 92° (E) 1,544 4.1 -7.9°
Drops below altitude 10° 17:11:58 10° 135° (SE) 1,987 5.0 -8.4°
Sets 17:14:46 0° 155° (SSE) 2,887 6.0 -8.8°
